When you browse on this site, cookies collect data to enhance your experience and personalize the content and advertising you see.
Visit our Privacy Policy to learn more. By continuing to use the site, you agree to this use of cookies and data.
  • In Italy
  • List of Countries
  • For 7 days
  • Water Temperature
  • Satellite Maps
  • Weather Map
  • Weather Widgets
  • user-avatar
    Login

    Hourly Weather Ropotamo

    Today, 20 February, Wednesday

    Time Temperature Precipitation Wind Pressure Humidity
    00:00 +8°C° 0 mm 3 mps 762 mmHg 85%
    01:00 +7°C° 0 mm 3 mps 762 mmHg 84%
    02:00 +7°C° 0 mm 2 mps 761 mmHg 83%
    03:00 +7°C° 0 mm 2 mps 761 mmHg 82%
    04:00 +7°C° 0 mm 2 mps 761 mmHg 80%
    05:00 +7°C° 0 mm 2 mps 761 mmHg 78%
    06:00 +7°C° 0 mm 2 mps 761 mmHg 76%
    07:00 +7°C° 0 mm 2 mps 761 mmHg 74%
    08:00 +7°C° 0 mm 2 mps 760 mmHg 71%
    09:00 +9°C° 0 mm 2 mps 760 mmHg 65%
    10:00 +12°C° 0 mm 2 mps 760 mmHg 59%
    11:00 +14°C° 0 mm 2 mps 760 mmHg 53%
    12:00 +15°C° 0 mm 2 mps 760 mmHg 52%
    13:00 +16°C° 0 mm 2 mps 760 mmHg 51%
    14:00 +17°C° 0 mm 2 mps 760 mmHg 50%
    15:00 +16°C° 0 mm 2 mps 760 mmHg 53%
    16:00 +16°C° 0 mm 1 mps 759 mmHg 55%
    17:00 +16°C° 0 mm 1 mps 759 mmHg 58%
    18:00 +14°C° 0 mm 2 mps 760 mmHg 61%
    19:00 +13°C° 0 mm 2 mps 760 mmHg 64%
    20:00 +12°C° 0 mm 2 mps 760 mmHg 67%
    21:00 +11°C° 0 mm 3 mps 760 mmHg 67%
    22:00 +10°C° 0 mm 3 mps 761 mmHg 67%
    23:00 +10°C° 0 mm 4 mps 761 mmHg 66%

    Tomorrow, 21 February, Thursday

    Time Temperature Precipitation Wind Pressure Humidity
    00:00 +8°C° 0 mm 4 mps 761 mmHg 67%
    01:00 +8°C° 0 mm 5 mps 762 mmHg 67%
    02:00 +8°C° 0 mm 5 mps 762 mmHg 68%
    03:00 +7°C° 0 mm 5 mps 762 mmHg 70%
    04:00 +7°C° 0 mm 5 mps 762 mmHg 72%
    05:00 +6°C° 0 mm 5 mps 762 mmHg 74%
    06:00 +7°C° 0 mm 4 mps 763 mmHg 77%
    07:00 +7°C° 0 mm 4 mps 763 mmHg 79%
    08:00 +7°C° 0 mm 4 mps 764 mmHg 81%
    09:00 +7°C° 0 mm 4 mps 764 mmHg 76%
    10:00 +8°C° 0 mm 4 mps 765 mmHg 71%
    11:00 +10°C° 0 mm 3 mps 765 mmHg 66%
    12:00 +11°C° 0 mm 3 mps 765 mmHg 62%
    13:00 +12°C° 0 mm 2 mps 765 mmHg 58%
    14:00 +12°C° 0 mm 2 mps 765 mmHg 54%
    15:00 +12°C° 0 mm 2 mps 764 mmHg 56%
    16:00 +12°C° 0 mm 2 mps 764 mmHg 57%
    17:00 +10°C° 0 mm 2 mps 764 mmHg 58%
    18:00 +9°C° 0 mm 2 mps 765 mmHg 63%
    19:00 +9°C° 0 mm 3 mps 765 mmHg 67%
    20:00 +8°C° 0 mm 3 mps 765 mmHg 72%
    21:00 +8°C° 0 mm 3 mps 765 mmHg 72%
    22:00 +7°C° 0 mm 3 mps 765 mmHg 73%
    23:00 +7°C° 0 mm 3 mps 765 mmHg 74%

    Day after tomorrow, 22 February, Friday

    Time Temperature Precipitation Wind Pressure Humidity
    00:00 +7°C° 0 mm 3 mps 764 mmHg 75%
    01:00 +7°C° 0 mm 3 mps 764 mmHg 75%
    02:00 +5°C° 0 mm 3 mps 763 mmHg 76%
    03:00 +5°C° 0 mm 3 mps 763 mmHg 76%
    04:00 +5°C° 0 mm 3 mps 762 mmHg 77%
    05:00 +5°C° 0 mm 4 mps 762 mmHg 77%
    06:00 +5°C° 0 mm 4 mps 761 mmHg 77%
    07:00 +6°C° 0 mm 4 mps 761 mmHg 78%
    08:00 +6°C° 0 mm 4 mps 761 mmHg 78%
    09:00 +7°C° 0 mm 4 mps 760 mmHg 70%
    10:00 +9°C° 0 mm 5 mps 760 mmHg 63%
    11:00 +10°C° 0 mm 5 mps 759 mmHg 55%
    12:00 +9°C° 0.5 mm 5 mps 758 mmHg 60%
    13:00 +8°C° 0.5 mm 5 mps 758 mmHg 64%
    14:00 +7°C° 0.5 mm 5 mps 757 mmHg 68%
    15:00 +7°C° 0.2 mm 5 mps 757 mmHg 70%
    16:00 +7°C° 0.2 mm 5 mps 757 mmHg 72%
    17:00 +7°C° 0.2 mm 5 mps 756 mmHg 74%
    18:00 +7°C° 0.1 mm 5 mps 756 mmHg 77%
    19:00 +7°C° 0.1 mm 5 mps 756 mmHg 80%
    20:00 +7°C° 0.1 mm 4 mps 757 mmHg 83%
    21:00 +5°C° 0.5 mm 8 mps 757 mmHg 84%
    22:00 +3°C° 0.5 mm 11 mps 758 mmHg 85%
    23:00 +1°C° 0.5 mm 14 mps 758 mmHg 87%

    23 February, Saturday

    Time Temperature Precipitation Wind Pressure Humidity
    00:00 0°C° 0.2 mm 14 mps 759 mmHg 86%
    01:00 -1°C° 0.2 mm 14 mps 760 mmHg 85%
    02:00 -4°C° 0.2 mm 13 mps 760 mmHg 85%
    03:00 -5°C° 0.5 mm 14 mps 761 mmHg 87%
    04:00 -6°C° 0.5 mm 14 mps 762 mmHg 88%
    05:00 -8°C° 0.5 mm 14 mps 763 mmHg 90%
    06:00 -9°C° 0.5 mm 14 mps 764 mmHg 87%
    07:00 -9°C° 0.5 mm 13 mps 765 mmHg 84%
    08:00 -9°C° 0.5 mm 13 mps 766 mmHg 81%
    09:00 -8°C° 0.1 mm 12 mps 766 mmHg 77%
    10:00 -8°C° 0.1 mm 12 mps 767 mmHg 73%
    11:00 -8°C° 0.1 mm 12 mps 767 mmHg 70%
    12:00 -7°C° 0.1 mm 12 mps 767 mmHg 68%
    13:00 -7°C° 0.1 mm 11 mps 767 mmHg 66%
    14:00 -6°C° 0.1 mm 11 mps 766 mmHg 64%
    15:00 -7°C° 0.1 mm 11 mps 767 mmHg 64%
    16:00 -7°C° 0.1 mm 11 mps 767 mmHg 64%
    17:00 -7°C° 0.1 mm 11 mps 767 mmHg 64%
    18:00 -7°C° 0.1 mm 11 mps 767 mmHg 65%
    19:00 -7°C° 0.1 mm 11 mps 767 mmHg 66%
    20:00 -7°C° 0.1 mm 11 mps 768 mmHg 67%
    21:00 -7°C° 0.1 mm 11 mps 768 mmHg 68%
    22:00 -7°C° 0.1 mm 11 mps 767 mmHg 69%
    23:00 -7°C° 0.1 mm 11 mps 767 mmHg 69%

    24 February, Sunday

    Time Temperature Precipitation Wind Pressure Humidity
    00:00 -7°C° 0.1 mm 12 mps 767 mmHg 71%
    01:00 -7°C° 0.1 mm 12 mps 767 mmHg 72%
    02:00 -8°C° 0.1 mm 12 mps 767 mmHg 73%
    03:00 -8°C° 0.1 mm 12 mps 766 mmHg 74%
    04:00 -8°C° 0.1 mm 12 mps 766 mmHg 74%
    05:00 -8°C° 0.1 mm 12 mps 766 mmHg 75%
    06:00 -8°C° 0.1 mm 12 mps 766 mmHg 75%
    07:00 -8°C° 0.1 mm 12 mps 766 mmHg 75%
    08:00 -8°C° 0.1 mm 12 mps 766 mmHg 75%
    09:00 -7°C° 0.1 mm 12 mps 766 mmHg 73%
    10:00 -7°C° 0.1 mm 12 mps 766 mmHg 71%
    11:00 -6°C° 0.1 mm 11 mps 766 mmHg 69%
    12:00 -6°C° 0.1 mm 11 mps 766 mmHg 68%
    13:00 -6°C° 0.1 mm 11 mps 765 mmHg 67%
    14:00 -4°C° 0.1 mm 11 mps 765 mmHg 65%
    15:00 -4°C° 0.1 mm 11 mps 765 mmHg 65%
    16:00 -4°C° 0.1 mm 11 mps 765 mmHg 66%
    17:00 -4°C° 0.1 mm 11 mps 765 mmHg 66%
    18:00 -4°C° 0.1 mm 11 mps 765 mmHg 68%
    19:00 -4°C° 0.1 mm 11 mps 765 mmHg 70%
    20:00 -4°C° 0.1 mm 11 mps 765 mmHg 71%
    21:00 -4°C° 0.2 mm 11 mps 765 mmHg 72%
    22:00 -4°C° 0.2 mm 11 mps 764 mmHg 73%
    23:00 -4°C° 0.2 mm 11 mps 764 mmHg 74%

    25 February, Monday

    Time Temperature Precipitation Wind Pressure Humidity
    00:00 -4°C° 0.2 mm 11 mps 764 mmHg 75%
    01:00 -4°C° 0.2 mm 11 mps 764 mmHg 75%
    02:00 -4°C° 0.2 mm 11 mps 764 mmHg 76%
    03:00 -6°C° 0.2 mm 11 mps 763 mmHg 75%
    04:00 -6°C° 0.2 mm 11 mps 763 mmHg 75%
    05:00 -6°C° 0.2 mm 11 mps 763 mmHg 74%
    06:00 -6°C° 0.1 mm 11 mps 763 mmHg 74%
    07:00 -5°C° 0.1 mm 10 mps 763 mmHg 73%
    08:00 -5°C° 0.1 mm 10 mps 763 mmHg 73%
    09:00 -5°C° 0.1 mm 10 mps 763 mmHg 71%
    10:00 -4°C° 0.1 mm 10 mps 763 mmHg 70%
    11:00 -4°C° 0.1 mm 10 mps 763 mmHg 68%
    12:00 -3°C° 0 mm 10 mps 763 mmHg 67%
    13:00 -3°C° 0 mm 10 mps 762 mmHg 66%
    14:00 -2°C° 0 mm 10 mps 762 mmHg 65%
    15:00 -3°C° 0.1 mm 10 mps 762 mmHg 68%
    16:00 -3°C° 0.1 mm 10 mps 762 mmHg 70%
    17:00 -3°C° 0.1 mm 10 mps 762 mmHg 73%
    18:00 -3°C° 0.1 mm 10 mps 762 mmHg 74%
    19:00 -3°C° 0.1 mm 10 mps 762 mmHg 75%
    20:00 -4°C° 0.1 mm 10 mps 762 mmHg 76%
    21:00 -3°C° 0.1 mm 10 mps 762 mmHg 72%
    22:00 -3°C° 0.1 mm 9 mps 762 mmHg 68%
    23:00 -3°C° 0.1 mm 9 mps 761 mmHg 64%
    Show more